1485036000.9,24669,9.31,74272.5,-7.85,-40.21,-40.29,0,*5D
1485036002.19,24670,9.31,74274.3,-7.85,-40.29,-40.41,0,*53
1485036003.48,24671,9.31,74274.8,-7.85,-40.09,-40.29,0,*5E
1485036004.75,24672,9.31,74270.5,-7.83,-40.09,-40.21,0,*53
1485036005.99,24673,9.31,74272.0,-7.83,-39.85,-40.09,0,*52
1485036007.24,24674,9.31,74272.3,-7.83,-39.85,-40.09,0,*55
1485036008.51,24675,9.31,74274.8,-7.83,-40.09,-40.29,0,*5C
1485036009.81,24676,9.38,74276.3,-7.81,-39.79,-39.97,0,*5F
1485036011.08,24677,9.31,74268.8,-7.83,-40.09,-40.29,0,*5E
1485036012.34,24678,9.31,74270.3,-7.81,-40.03,-40.21,0,*51
1485036013.6,24679,9.31,74274.3,-7.83,-40.21,-40.29,0,*5A
1485036014.87,24680,9.31,74274.3,-7.83,-40.09,-40.29,0,*56
1485036016.11,24681,9.31,74274.3,-7.83,-40.03,-40.21,0,*55
1485036017.33,24682,9.38,74278.3,-7.83,-39.85,-39.91,0,*53
1485036018.6,24683,9.31,74270.0,-7.81,-39.79,-40.03,0,*56
1485036019.84,24684,9.31,74270.5,-7.83,-40.03,-40.09,0,*5A
1485036021.09,24685,9.31,74276.5,-7.83,-39.91,-40.21,0,*54
1485036022.36,24686,9.31,74274.5,-7.83,-40.59,-40.85,0,*53
1485036023.65,24687,9.31,74274.8,-7.81,-40.41,-40.59,0,*58
1485036024.9,24688,9.31,74272.8,-7.81,-40.53,-40.79,0,*56
1485036026.13,24689,9.31,74274.3,-7.81,-40.53,-40.73,0,*5D
1485036027.41,24690,9.31,74272.8,-7.83,-40.41,-40.41,0,*55
1485036028.67,24691,9.31,74274.3,-7.83,-40.29,-40.29,0,*54
1485036029.92,24692,9.31,74272.8,-7.81,-40.21,-40.35,0,*50
1485036031.18,24693,9.31,74272.0,-7.81,-39.97,-40.15,0,*50
1485036032.43,24694,9.31,74274.3,-7.81,-40.15,-40.15,0,*53
1485036033.67,24695,9.31,74270.8,-7.81,-40.15,-40.35,0,*50
1485036034.88,24696,9.31,74270.5,-7.83,-40.47,-40.65,0,*53
1485036036.15,24697,9.31,74274.3,-7.81,-40.41,-40.53,0,*53
1485036037.4,24698,9.31,74268.5,-7.81,-40.21,-40.35,0,*5A
1485036038.66,24699,9.31,74272.0,-7.81,-39.97,-40.03,0,*5D
1485036039.92,24700,9.31,74270.8,-7.81,-40.03,-40.21,0,*5F
1485036041.17,24701,9.31,74270.5,-7.81,-40.53,-40.79,0,*56
1485036042.44,24702,9.31,74272.3,-7.83,-40.79,-40.97,0,*5F
1485036043.67,24703,9.31,74270.5,-7.81,-40.53,-40.73,0,*5E
1485036044.91,24704,9.31,74272.8,-7.81,-40.03,-40.35,0,*5E
1485036046.16,24705,9.31,74274.0,-7.83,-39.91,-40.09,0,*57
1485036047.42,24706,9.31,74270.8,-7.81,-40.41,-40.73,0,*58
1485036048.69,24707,9.31,74272.0,-7.81,-40.59,-40.91,0,*5C
1485036049.93,24708,9.31,74274.3,-7.83,-40.47,-40.59,0,*5A
1485036051.14,24709,9.31,74272.3,-7.83,-40.47,-40.65,0,*54
1485036052.42,24710,9.31,74272.3,-7.83,-40.41,-40.41,0,*5C
1485036053.69,24711,9.31,74274.0,-7.81,-40.15,-40.21,0,*58
1485036054.92,24712,9.31,74272.0,-7.83,-40.29,-40.47,0,*56
1485036056.17,24713,9.31,74272.0,-7.83,-39.91,-40.21,0,*5A
1485036057.43,24714,9.31,74272.3,-7.83,-40.21,-40.29,0,*50
1485036058.66,24715,9.31,74274.3,-7.83,-40.21,-40.47,0,*59
1485036059.93,24716,9.31,74270.8,-7.83,-40.29,-40.41,0,*54
1485036061.17,24717,9.31,74274.3,-7.83,-40.41,-40.47,0,*5D
1485036062.41,24718,9.31,74272.0,-7.83,-40.47,-40.79,0,*59
1485036063.65,24719,9.31,74274.0,-7.83,-40.59,-40.65,0,*5A
1485036064.89,24720,9.31,74270.5,-7.83,-40.65,-40.97,0,*52
1485036066.13,24721,9.31,74272.5,-7.83,-40.65,-40.97,0,*53
1485036067.37,24722,9.31,74274.5,-7.83,-40.47,-40.79,0,*50
1485036068.61,24723,9.31,74270.8,-7.83,-40.47,-40.59,0,*53
1485036069.88,24724,9.31,74272.3,-7.83,-40.29,-40.59,0,*5C
1485036071.15,24725,9.31,74274.8,-7.81,-40.15,-40.41,0,*59
1485036072.42,24726,9.31,74274.3,-7.83,-40.09,-40.29,0,*5B
1485036073.69,24727,9.31,74274.0,-7.83,-40.09,-40.21,0,*52
1485036074.96,24728,9.31,74274.5,-7.83,-40.09,-40.29,0,*55
1485036076.23,24729,9.31,74274.5,-7.83,-40.21,-40.41,0,*50
1485036077.49,24730,9.31,74274.0,-7.83,-40.09,-40.29,0,*5C
1485036078.76,24731,9.31,74274.0,-7.83,-40.29,-40.41,0,*51
1485036080.03,24732,9.31,74272.3,-7.83,-40.59,-40.59,0,*5C
1485036081.24,24733,9.31,74274.3,-7.83,-40.47,-40.65,0,*5D
1485036082.54,24734,9.31,74274.8,-7.85,-40.41,-40.41,0,*5C
1485036083.8,24735,9.31,74272.8,-7.85,-39.91,-40.21,0,*58
1485036085.05,24736,9.31,74270.0,-7.83,-39.91,-40.09,0,*57
1485036086.34,24737,9.31,74274.0,-7.85,-40.29,-40.41,0,*51
1485036087.61,24738,9.31,74274.8,-7.83,-40.09,-40.29,0,*54
1485036088.88,24739,9.31,74272.3,-7.83,-40.09,-40.29,0,*55
1485036090.15,24740,9.31,74270.8,-7.83,-40.09,-40.21,0,*53
1485036091.42,24741,9.31,74272.5,-7.81,-40.15,-40.21,0,*5D
1485036092.68,24742,9.31,74274.5,-7.83,-40.21,-40.41,0,*5D
1485036093.95,24743,9.31,74272.5,-7.83,-40.09,-40.21,0,*50
1485036095.19,24744,9.31,74270.3,-7.81,-40.03,-40.35,0,*5A
1485036096.46,24745,9.31,74270.8,-7.83,-40.59,-40.85,0,*5D
1485036097.7,24746,9.31,74274.3,-7.83,-40.65,-40.85,0,*51
1485036098.93,24747,9.31,74274.3,-7.83,-40.79,-41.11,0,*51
1485036100.17,24748,9.31,74272.8,-7.85,-40.65,-41.11,0,*55
1485036101.43,24749,9.31,74272.8,-7.85,-40.65,-40.97,0,*5B
1485036102.71,24750,9.31,74272.5,-7.85,-40.21,-40.41,0,*58
1485036103.94,24751,9.31,74272.8,-7.85,-40.47,-40.65,0,*5F
1485036105.23,24752,9.31,74272.8,-7.85,-40.09,-40.21,0,*56
1485036106.5,24753,9.31,74274.8,-7.85,-40.03,-40.21,0,*5D
1485036107.73,24754,9.31,74274.8,-7.81,-40.03,-40.15,0,*59
1485036109.0,24755,9.31,74274.0,-7.83,-40.09,-40.21,0,*57
1485036110.24,24756,9.31,74278.3,-7.81,-40.35,-40.53,0,*5C
1485036111.49,24757,9.31,74272.5,-7.83,-39.91,-40.21,0,*5A
1485036112.74,24758,9.31,74272.0,-7.81,-39.97,-40.03,0,*51
1485036113.98,24759,9.31,74272.0,-7.83,-40.03,-40.21,0,*51
1485036115.2,24760,9.31,74274.0,-7.83,-39.85,-40.03,0,*5B
1485036116.42,24761,9.31,74274.0,-7.83,-39.91,-40.03,0,*5F
1485036117.68,24762,9.31,74276.8,-7.81,-39.97,-40.15,0,*5F
1485036118.97,24763,9.31,74274.0,-7.81,-40.41,-40.59,0,*53
1485036120.24,24764,9.31,74272.3,-7.81,-40.35,-40.59,0,*57
1485036121.45,24765,9.31,74278.8,-7.83,-40.47,-40.65,0,*5E
1485036122.71,24766,9.31,74274.8,-7.81,-40.35,-40.41,0,*5C
1485036123.98,24767,9.31,74272.3,-7.83,-40.29,-40.59,0,*5B
1485036125.22,24768,9.31,74274.0,-7.81,-39.85,-40.15,0,*56
1485036126.48,24769,9.31,74272.5,-7.81,-40.03,-40.21,0,*50
1485036127.73,24770,9.31,74272.8,-7.83,-39.91,-40.21,0,*5F
1485036128.99,24771,9.31,74272.8,-7.81,-39.97,-40.15,0,*5D
1485036130.25,24772,9.31,74274.5,-7.81,-40.35,-40.59,0,*50
1485036131.52,24773,9.31,74276.3,-7.83,-40.59,-40.97,0,*5B
1485036132.79,24774,9.31,74274.5,-7.81,-40.59,-41.03,0,*52
1485036134.02,24775,9.31,74272.8,-7.83,-40.65,-40.79,0,*52
1485036135.23,24776,9.31,74272.8,-7.83,-40.47,-40.47,0,*5C
1485036136.48,24777,9.31,74272.3,-7.83,-40.09,-40.47,0,*57
1485036137.71,24778,9.31,74274.8,-7.83,-40.29,-40.47,0,*5A
1485036139.0,24779,9.31,74274.5,-7.81,-40.21,-40.41,0,*57
1485036140.27,24780,9.31,74274.3,-7.81,-40.15,-40.21,0,*50
1485036141.5,24781,9.31,74268.5,-7.81,-40.35,-40.35,0,*56
1485036142.75,24782,9.31,74272.3,-7.83,-39.91,-40.09,0,*58
1485036143.99,24783,9.31,74274.0,-7.83,-40.29,-40.47,0,*5E
1485036145.2,24784,9.31,74274.3,-7.83,-40.47,-40.53,0,*54
1485036146.46,24785,9.31,74274.3,-7.83,-40.21,-40.29,0,*58
1485036147.73,24786,9.31,74274.5,-7.81,-39.79,-40.15,0,*55
1485036148.97,24787,9.31,74272.3,-7.81,-40.03,-40.15,0,*57
1485036150.25,24788,9.31,74274.3,-7.81,-39.97,-40.21,0,*5C
1485036151.54,24789,9.31,74272.3,-7.81,-39.97,-40.21,0,*5D
1485036152.81,24790,9.31,74270.8,-7.81,-39.79,-40.03,0,*55
1485036154.07,24791,9.31,74274.0,-7.81,-40.41,-40.53,0,*54
1485036155.33,24792,9.31,74274.8,-7.83,-40.59,-40.79,0,*54
1485036156.57,24793,9.31,74274.0,-7.81,-40.03,-40.35,0,*50
1485036157.83,24794,9.31,74276.0,-7.81,-39.97,-40.15,0,*56
1485036159.07,24795,9.31,74272.5,-7.83,-40.03,-40.21,0,*51
1485036160.31,24796,9.31,74274.0,-7.81,-40.15,-40.15,0,*50
1485036161.61,24797,9.31,74274.8,-7.81,-39.79,-39.97,0,*51
1485036162.86,24798,9.31,74274.3,-7.83,-39.91,-40.09,0,*53
1485036164.1,24799,9.31,74272.0,-7.81,-39.85,-40.03,0,*5F
1485036165.33,24800,9.31,74272.3,-7.81,-40.53,-40.73,0,*52
1485036166.58,24801,9.31,74272.8,-7.81,-40.53,-40.79,0,*59
1485036167.82,24802,9.31,74274.3,-7.81,-40.35,-40.53,0,*52
1485036169.03,24803,9.31,74274.5,-7.83,-40.35,-40.53,0,*51
1485036170.33,24804,9.31,74274.8,-7.81,-40.41,-40.59,0,*5D
1485036171.58,24805,9.31,74272.5,-7.81,-40.53,-40.79,0,*5D
1485036172.84,24806,9.31,74270.3,-7.81,-40.53,-40.59,0,*5C
1485036174.09,24807,9.31,74274.3,-7.81,-40.53,-40.79,0,*5F
1485036175.3,24808,9.31,74272.8,-7.83,-40.47,-40.65,0,*5A
1485036176.56,24809,9.31,74272.5,-7.81,-40.21,-40.53,0,*5C
1485036177.83,24810,9.31,74272.8,-7.83,-40.09,-40.21,0,*59
1485036179.07,24811,9.31,74274.0,-7.81,-39.85,-40.03,0,*50
1485036180.3,24812,9.31,74272.5,-7.83,-40.29,-40.47,0,*59
1485036181.57,24813,9.31,74274.0,-7.81,-40.35,-40.41,0,*51
1485036182.83,24814,9.31,74272.8,-7.81,-40.41,-40.73,0,*54
1485036184.07,24815,9.31,74272.3,-7.81,-40.73,-41.17,0,*57
1485036185.33,24816,9.31,74272.5,-7.81,-40.41,-40.53,0,*54
1485036186.61,24817,9.31,74274.3,-7.83,-40.41,-40.41,0,*54
1485036187.85,24818,9.31,74270.8,-7.83,-40.03,-40.21,0,*5B
1485036189.12,24819,9.31,74274.3,-7.83,-40.59,-40.85,0,*5B
1485036190.36,24820,9.31,74272.3,-7.83,-40.97,-41.29,0,*54
1485036191.57,24821,9.31,74274.3,-7.83,-40.47,-40.65,0,*51
1485036192.84,24822,9.31,74272.5,-7.83,-40.09,-40.29,0,*50
1485036194.09,24823,9.31,74270.3,-7.83,-39.91,-40.21,0,*56
1485036195.33,24824,9.31,74272.3,-7.83,-40.35,-40.59,0,*5E
1485036196.6,24825,9.31,74274.0,-7.83,-40.29,-40.41,0,*5B
1485036197.84,24826,9.31,74270.3,-7.81,-40.03,-40.15,0,*53
1485036199.08,24827,9.31,74274.8,-7.83,-39.91,-40.21,0,*52
1485036200.33,24828,9.31,74272.5,-7.83,-39.65,-40.09,0,*5C
1485036201.62,24829,9.31,74272.8,-7.81,-40.41,-40.59,0,*52
1485036202.84,24830,9.31,74274.0,-7.83,-40.47,-40.65,0,*51
1485036204.07,24831,9.31,74270.8,-7.83,-40.65,-41.23,0,*53
1485036205.35,24832,9.31,74274.8,-7.83,-40.59,-40.97,0,*51
1485036206.59,24833,9.31,74272.5,-7.83,-40.41,-40.47,0,*54
1485036207.86,24834,9.31,74270.5,-7.83,-40.41,-40.59,0,*5C
1485036209.1,24835,9.31,74272.0,-7.83,-40.47,-40.79,0,*59
1485036210.37,24836,9.31,74272.5,-7.83,-40.59,-40.59,0,*57
1485036211.64,24837,9.31,74274.0,-7.83,-40.41,-40.59,0,*5F
1485036212.88,24838,9.31,74272.5,-7.83,-40.41,-40.47,0,*5F
1485036214.1,24839,9.31,74272.3,-7.83,-40.47,-40.65,0,*58
1485036215.33,24840,9.31,74272.0,-7.85,-40.47,-40.65,0,*50
1485036216.57,24841,9.31,74272.8,-7.83,-40.65,-40.85,0,*59
1485036217.81,24842,9.31,74272.5,-7.83,-40.47,-40.59,0,*5B
1485036219.09,24843,9.31,74270.3,-7.85,-40.21,-40.29,0,*5B
1485036220.31,24844,9.31,74274.5,-7.89,-40.15,-40.35,0,*5A
1485036221.56,24845,9.31,74274.5,-7.85,-40.21,-40.47,0,*55
1485036222.85,24846,9.31,74274.5,-7.85,-40.09,-40.41,0,*5A
1485036224.14,24847,9.31,74274.0,-7.85,-40.29,-40.41,0,*59
1485036225.37,24848,9.31,74272.8,-7.83,-40.29,-40.47,0,*56
1485036226.64,24849,9.31,74270.3,-7.83,-40.21,-40.41,0,*59
1485036227.88,24850,9.31,74272.8,-7.83,-40.41,-40.47,0,*51
1485036229.15,24851,9.31,74274.8,-7.83,-40.09,-40.29,0,*54
1485036230.41,24852,9.31,74274.5,-7.83,-40.29,-40.29,0,*55
1485036231.69,24853,9.31,74272.0,-7.81,-40.15,-40.41,0,*57
1485036232.93,24854,9.31,74274.5,-7.83,-40.41,-40.65,0,*55
1485036234.17,24855,9.31,74272.5,-7.83,-40.03,-40.21,0,*52
1485036235.42,24856,9.31,74268.5,-7.83,-39.85,-40.09,0,*5B
1485036236.69,24857,9.31,74270.3,-7.83,-40.41,-40.59,0,*59
1485036237.93,24858,9.31,74274.8,-7.81,-40.35,-40.53,0,*5D
1485036239.17,24859,9.31,74274.3,-7.83,-40.79,-41.11,0,*51
1485036240.41,24860,9.31,74272.8,-7.83,-40.47,-40.59,0,*5B
1485036241.65,24861,9.31,74272.0,-7.83,-40.29,-40.65,0,*5D
1485036242.92,24862,9.31,74270.8,-7.83,-40.79,-40.97,0,*56
1485036244.18,24863,9.31,74272.5,-7.83,-40.21,-40.41,0,*51
1485036245.42,24864,9.31,74270.3,-7.83,-40.47,-40.79,0,*5D
1485036246.67,24865,9.31,74272.0,-7.85,-40.47,-40.79,0,*5A
1485036247.93,24866,9.31,74274.3,-7.85,-40.29,-40.47,0,*5C
1485036249.19,24867,9.31,74276.5,-7.83,-40.21,-40.41,0,*55
1485036250.46,24868,9.31,74274.0,-7.83,-40.21,-40.41,0,*5A
1485036251.69,24869,9.31,74274.3,-7.83,-40.21,-40.47,0,*5D
1485036252.95,24870,9.31,74272.0,-7.83,-40.21,-40.41,0,*53
1485036254.2,24871,9.31,74272.3,-7.83,-40.41,-40.65,0,*52
1485036255.44,24872,9.31,74272.0,-7.83,-40.47,-40.59,0,*58
1485036256.7,24873,9.31,74272.3,-7.83,-40.21,-40.41,0,*50
1485036257.98,24874,9.31,74268.3,-7.83,-40.59,-40.97,0,*53
1485036259.19,24875,9.31,74268.8,-7.83,-40.47,-40.65,0,*50
1485036260.45,24876,9.31,74272.8,-7.83,-40.29,-40.41,0,*5D
1485036261.71,24877,9.31,74274.8,-7.83,-40.21,-40.29,0,*5A
1485036262.96,24878,9.31,74274.5,-7.83,-40.41,-40.65,0,*5B
1485036264.17,24879,9.31,74270.5,-7.83,-40.47,-40.65,0,*5C
1485036265.38,24880,9.31,74274.3,-7.83,-40.47,-40.65,0,*5A
1485036266.68,24881,9.31,74270.3,-7.85,-40.59,-40.97,0,*5F
1485036267.91,24882,9.31,74274.0,-7.85,-40.47,-40.65,0,*5E
1485036269.19,24883,9.31,74270.3,-7.85,-40.59,-40.79,0,*5D
1485036270.49,24884,9.31,74270.0,-7.85,-40.41,-40.59,0,*51
1485036271.74,24885,9.31,74274.5,-7.85,-40.29,-40.47,0,*51
1485036273.02,24886,9.31,74274.3,-7.85,-40.21,-40.29,0,*52
1485036274.31,24887,9.31,74270.5,-7.85,-40.41,-40.59,0,*52
1485036275.58,24888,9.31,74270.8,-7.85,-40.41,-40.65,0,*52
1485036276.81,24889,9.31,74274.8,-7.89,-40.73,-40.85,0,*50
1485036278.09,24890,9.31,74272.8,-7.85,-40.21,-40.29,0,*55
1485036279.35,24891,9.31,74272.0,-7.85,-40.41,-40.47,0,*5A
1485036280.65,24892,9.31,74270.0,-7.85,-40.09,-40.41,0,*53
1485036281.93,24893,9.31,74268.5,-7.85,-40.29,-40.59,0,*59
1485036283.19,24894,9.31,74274.0,-7.85,-40.29,-40.35,0,*54
1485036284.4,24895,9.31,74270.5,-7.89,-40.15,-40.35,0,*56
1485036285.66,24896,9.31,74272.0,-7.85,-40.03,-40.29,0,*53
1485036286.94,24897,9.31,74272.3,-7.85,-40.21,-40.41,0,*5C
1485036288.2,24898,9.31,74268.5,-7.83,-40.21,-40.29,0,*5B
1485036289.41,24899,9.31,74270.8,-7.89,-40.35,-40.47,0,*5D
1485036290.69,24900,9.31,74270.8,-7.85,-40.21,-40.29,0,*5D
1485036291.95,24901,9.31,74274.0,-7.85,-39.91,-40.21,0,*51
1485036293.22,24902,9.31,74268.5,-7.85,-39.91,-40.09,0,*58
1485036294.46,24903,9.31,74272.0,-7.83,-40.29,-40.47,0,*58
1485036295.73,24904,9.31,74268.8,-7.83,-40.09,-40.29,0,*55
1485036296.96,24905,9.31,74270.0,-7.83,-40.21,-40.47,0,*56
1485036298.26,24906,9.31,74268.3,-7.81,-40.41,-40.59,0,*5E
1485036299.53,24907,9.31,74272.0,-7.83,-40.41,-40.59,0,*5D
1485036300.77,24908,9.31,74270.5,-7.83,-39.85,-40.21,0,*5B
1485036302.01,24909,9.31,74270.5,-7.83,-40.03,-40.29,0,*52
1485036303.25,24910,9.31,74268.0,-7.83,-40.29,-40.47,0,*5A
1485036304.49,24911,9.31,74274.3,-7.83,-39.91,-40.21,0,*56
1485036305.76,24912,9.31,74270.3,-7.83,-40.21,-40.41,0,*56
1485036307.03,24913,9.31,74274.0,-7.83,-40.09,-40.29,0,*53
1485036308.29,24914,9.31,74268.3,-7.83,-40.59,-40.79,0,*54
1485036309.56,24915,9.31,74270.0,-7.83,-40.41,-40.59,0,*5E
1485036310.81,24916,9.31,74272.3,-7.83,-39.71,-40.03,0,*5F
1485036312.1,24917,9.31,74270.0,-7.81,-39.41,-39.59,0,*5E
1485036313.34,24918,9.31,74266.5,-7.83,-40.41,-40.65,0,*5C
1485036314.6,24919,9.31,74272.0,-7.81,-40.47,-40.79,0,*54
1485036315.83,24920,9.31,74272.5,-7.81,-40.03,-40.15,0,*54
1485036317.05,24921,9.31,74272.8,-7.83,-39.65,-39.85,0,*5E
1485036318.32,24922,9.31,74270.5,-7.83,-40.09,-40.09,0,*53
1485036319.59,24923,9.31,74270.5,-7.83,-40.21,-40.41,0,*54
1485036320.82,24924,9.31,74270.3,-7.83,-40.29,-40.47,0,*5D
1485036322.09,24925,9.31,74268.5,-7.83,-40.29,-40.41,0,*5A
1485036323.34,24926,9.31,74272.0,-7.83,-39.85,-40.09,0,*5D
1485036324.57,24927,9.31,74270.8,-7.81,-40.03,-40.15,0,*53
1485036325.87,24928,9.31,74268.8,-7.81,-40.41,-40.59,0,*52
1485036327.1,24929,9.31,74272.8,-7.83,-40.47,-40.79,0,*55
1485036328.37,24930,9.31,74272.5,-7.81,-40.41,-40.73,0,*53
1485036329.61,24931,9.31,74272.3,-7.83,-40.47,-40.59,0,*5E
1485036330.86,24932,9.31,74270.8,-7.83,-39.91,-40.21,0,*57
1485036332.12,24933,9.31,74272.3,-7.81,-40.03,-40.21,0,*51
1485036333.38,24934,9.31,74274.0,-7.81,-40.03,-40.21,0,*56
1485036334.64,24935,9.31,74270.5,-7.81,-39.53,-39.85,0,*5C
1485036335.9,24936,9.31,74270.8,-7.81,-39.97,-40.15,0,*50
1485036337.16,24937,9.31,74272.3,-7.83,-40.21,-40.41,0,*51
1485036338.4,24938,9.31,74272.3,-7.81,-40.03,-40.15,0,*5D
1485036339.68,24939,9.31,74270.8,-7.81,-39.97,-40.21,0,*58
1485036340.95,24940,9.31,74272.5,-7.81,-39.79,-40.15,0,*51
1485036342.21,24941,9.31,74272.0,-7.81,-40.03,-40.21,0,*54
1485036343.45,24942,9.31,74268.3,-7.79,-40.41,-40.73,0,*51
1485036344.72,24943,9.31,74270.8,-7.81,-40.59,-40.91,0,*52
1485036346.0,24944,9.31,74274.8,-7.81,-40.21,-40.41,0,*57
1485036347.27,24945,9.31,74268.5,-7.81,-39.65,-39.97,0,*5D
1485036348.51,24946,9.31,74270.0,-7.81,-40.15,-40.35,0,*51
1485036349.76,24947,9.31,74270.8,-7.81,-40.15,-40.35,0,*50
1485036351.05,24948,9.31,74270.5,-7.81,-39.59,-39.97,0,*5F
1485036352.31,24949,9.31,74270.3,-7.79,-39.97,-40.21,0,*58
1485036353.56,24950,9.31,74266.8,-7.77,-40.29,-40.35,0,*50
1485036354.82,24951,9.31,74268.3,-7.77,-40.09,-40.15,0,*51
1485036356.06,24952,9.31,74268.0,-7.79,-40.03,-40.21,0,*51
1485036357.32,24953,9.31,74270.8,-7.77,-39.59,-39.91,0,*5A
1485036358.56,24954,9.31,74272.0,-7.79,-39.65,-39.97,0,*5A
1485036359.83,24955,9.31,74270.0,-7.79,-39.59,-39.79,0,*54
1485036361.09,24956,9.31,74272.3,-7.77,-40.09,-40.35,0,*54
1485036362.35,24957,9.31,74270.8,-7.77,-39.97,-40.15,0,*5E
1485036363.59,24958,9.31,74274.3,-7.79,-40.35,-40.41,0,*58
1485036364.84,24959,9.31,74270.8,-7.79,-40.21,-40.41,0,*5C
1485036366.09,24960,9.31,74268.3,-7.77,-40.29,-40.35,0,*53
1485036367.33,24961,9.31,74270.5,-7.77,-40.47,-40.73,0,*58
1485036368.57,24962,9.31,74272.5,-7.75,-39.91,-40.09,0,*51
1485036369.86,24963,9.31,74272.3,-7.77,-39.79,-39.97,0,*5D
1485036371.13,24964,9.31,74270.5,-7.77,-40.15,-40.29,0,*55
1485036372.42,24965,9.31,74272.5,-7.77,-39.79,-39.97,0,*5B
1485036373.7,24966,9.31,74272.0,-7.77,-39.71,-39.97,0,*50
1485036374.93,24967,9.31,74270.5,-7.77,-40.47,-40.65,0,*59
1485036376.22,24968,9.31,74268.8,-7.77,-40.09,-40.09,0,*56
1485036377.49,24969,9.31,74270.8,-7.77,-40.15,-40.29,0,*58
1485036378.77,24970,9.31,74272.0,-7.77,-39.97,-39.97,0,*5F
1485036380.03,24971,9.31,74272.8,-7.77,-39.91,-39.97,0,*58
1485036381.3,24972,9.31,74272.0,-7.77,-40.15,-40.29,0,*52
1485036382.57,24973,9.31,74274.3,-7.77,-39.59,-39.91,0,*58
1485036383.86,24974,9.31,74272.8,-7.77,-39.79,-40.09,0,*52
1485036385.12,24975,9.31,74268.8,-7.77,-40.09,-40.15,0,*57
1485036386.33,24976,9.31,74272.0,-7.75,-40.35,-40.47,0,*5E
1485036387.57,24977,9.31,74270.8,-7.75,-39.91,-39.97,0,*5C
1485036388.8,24978,9.31,74270.0,-7.75,-40.29,-40.53,0,*58
1485036390.05,24979,9.31,74270.0,-7.75,-39.79,-39.91,0,*52
1485036391.32,24980,9.31,74268.3,-7.75,-39.79,-39.97,0,*52
1485036392.6,24981,9.31,74272.0,-7.73,-40.21,-40.41,0,*53
1485036393.83,24982,9.31,74270.3,-7.75,-40.41,-40.73,0,*51
1485036395.09,24983,9.31,74272.5,-7.75,-39.97,-40.09,0,*58
1485036396.36,24984,9.31,74272.5,-7.75,-39.71,-39.97,0,*5E
1485036397.65,24985,9.31,74274.5,-7.73,-40.09,-40.09,0,*51
1485036398.91,24986,9.31,74270.8,-7.73,-39.85,-40.09,0,*58
1485036400.17,24987,9.31,74274.8,-7.75,-39.97,-40.09,0,*5C
1485036401.43,24988,9.31,74274.3,-7.73,-40.03,-40.09,0,*56
1485036402.67,24989,9.31,74272.5,-7.73,-39.85,-40.03,0,*5D
1485036403.95,24990,9.31,74270.0,-7.73,-39.29,-39.41,0,*5B
1485036405.21,24991,9.31,74270.5,-7.73,-39.71,-39.91,0,*5A
1485036406.45,24992,9.31,74270.0,-7.73,-39.65,-39.91,0,*5C
1485036407.66,24993,9.31,74272.3,-7.71,-39.65,-39.85,0,*5A
1485036408.89,24994,9.31,74268.8,-7.71,-39.71,-39.91,0,*5D
1485036410.13,24995,9.31,74270.3,-7.71,-39.47,-39.79,0,*5F
1485036411.39,24996,9.31,74270.0,-7.71,-40.09,-40.09,0,*51
1485036412.63,24997,9.31,74272.0,-7.71,-39.91,-40.09,0,*5F
1485036413.92,24998,9.31,74272.3,-7.69,-39.41,-39.59,0,*5F
1485036415.15,24999,9.31,74270.0,-7.69,-40.03,-40.03,0,*57
1485036416.41,25000,9.31,74272.5,-7.69,-39.85,-39.97,0,*5C
1485036417.7,25001,9.31,74268.0,-7.69,-39.79,-39.97,0,*5E
1485036418.98,25002,9.31,74266.0,-7.69,-39.97,-39.97,0,*5D
1485036420.21,25003,9.31,74268.0,-7.69,-39.65,-39.85,0,*52
1485036421.47,25004,9.31,74268.5,-7.71,-40.09,-40.21,0,*58
1485036422.72,25005,9.31,74270.5,-7.69,-39.41,-39.47,0,*5C
1485036423.93,25006,9.31,74270.5,-7.67,-39.85,-40.03,0,*57
1485036425.14,25007,9.31,74270.3,-7.67,-40.03,-40.15,0,*51
1485036426.43,25008,9.31,74268.5,-7.69,-39.79,-39.97,0,*57
1485036427.67,25009,9.31,74270.8,-7.67,-39.65,-39.97,0,*55
1485036428.95,25010,9.31,74270.5,-7.65,-39.53,-39.79,0,*5A
1485036430.16,25011,9.31,74268.5,-7.67,-39.65,-39.85,0,*5F
1485036431.43,25012,9.31,74268.8,-7.65,-39.59,-39.91,0,*54
1485036432.65,25013,9.31,74270.5,-7.67,-40.21,-40.35,0,*56
1485036433.9,25014,9.31,74268.8,-7.67,-40.15,-40.21,0,*53
1485036435.11,25015,9.31,74274.8,-7.67,-40.35,-40.53,0,*55
1485036436.33,25016,9.31,74268.3,-7.67,-40.21,-40.35,0,*53
1485036437.54,25017,9.31,74274.8,-7.67,-40.03,-40.15,0,*50
1485036438.81,25018,9.31,74268.0,-7.67,-39.79,-39.97,0,*58
1485036440.06,25019,9.31,74270.8,-7.65,-39.35,-39.53,0,*5B
1485036441.3,25020,9.31,74270.0,-7.67,-40.15,-40.21,0,*54
1485036442.51,25021,9.31,74274.0,-7.67,-40.03,-40.15,0,*55
1485036443.78,25022,9.31,74272.3,-7.65,-39.91,-40.09,0,*5C
1485036444.99,25023,9.31,74270.8,-7.67,-40.35,-40.53,0,*50
1485036446.22,25024,9.31,74268.5,-7.65,-40.15,-40.35,0,*57
1485036447.48,25025,9.31,74268.5,-7.65,-39.97,-40.15,0,*50
1485036448.73,25026,9.31,74268.0,-7.65,-40.29,-40.53,0,*5A
1485036449.97,25027,9.31,74268.3,-7.67,-39.91,-40.09,0,*5B
1485036451.23,25028,9.31,74270.5,-7.65,-39.91,-39.97,0,*5F
1485036452.52,25029,9.31,74270.8,-7.65,-39.79,-40.09,0,*51
1485036453.79,25030,9.31,74270.3,-7.65,-39.91,-40.09,0,*5F
1485036455.05,25031,9.31,74274.8,-7.65,-39.91,-40.09,0,*5E
1485036456.33,25032,9.31,74272.5,-7.65,-40.29,-40.29,0,*52
1485036457.59,25033,9.31,74272.0,-7.65,-40.15,-40.29,0,*5C
1485036458.82,25034,9.31,74270.8,-7.67,-40.35,-40.21,0,*53
1485036460.07,25035,9.31,74270.5,-7.65,-40.47,-40.79,0,*58
1485036461.33,25036,9.31,74268.0,-7.65,-40.73,-40.97,0,*5C
1485036462.56,25037,9.31,74268.0,-7.65,-40.35,-40.47,0,*52
1485036463.84,25038,9.31,74270.8,-7.65,-39.97,-40.09,0,*51
1485036465.12,25039,9.31,74270.8,-7.65,-39.97,-40.09,0,*50
1485036466.4,25040,9.31,74274.0,-7.65,-40.29,-40.29,0,*57
1485036467.63,25041,9.31,74274.0,-7.65,-40.15,-40.47,0,*51
1485036468.92,25042,9.31,74274.3,-7.65,-39.79,-39.97,0,*55
1485036470.18,25043,9.31,74270.3,-7.61,-39.91,-40.09,0,*5F
1485036471.39,25044,9.31,74270.5,-7.59,-40.03,-40.03,0,*5C
1485036472.63,25045,9.31,74268.3,-7.61,-40.15,-40.35,0,*54
1485036473.91,25046,9.31,74270.0,-7.65,-40.09,-40.29,0,*53
1485036475.14,25047,9.31,74272.0,-7.65,-40.47,-40.65,0,*50
1485036476.38,25048,9.31,74268.3,-7.65,-40.53,-40.79,0,*57
1485036477.64,25049,9.31,74272.8,-7.65,-40.53,-40.97,0,*56
1485036478.89,25050,9.31,74270.5,-7.65,-40.53,-40.79,0,*5E
1485036480.12,25051,9.31,74272.8,-7.67,-40.41,-40.35,0,*56
1485036481.37,25052,9.31,74270.0,-7.65,-40.29,-40.53,0,*59
1485036482.61,25053,9.31,74270.5,-7.65,-40.15,-40.35,0,*57
1485036483.86,25054,9.31,74270.8,-7.65,-40.29,-40.35,0,*5F
1485036485.11,25055,9.31,74268.5,-7.65,-40.29,-40.47,0,*5B
1485036486.37,25056,9.31,74268.8,-7.65,-40.15,-40.29,0,*5F
1485036487.64,25057,9.31,74270.8,-7.65,-40.15,-40.29,0,*5E
1485036488.88,25058,9.31,74270.5,-7.65,-40.15,-40.15,0,*5E
1485036490.11,25059,9.31,74268.3,-7.65,-39.85,-40.15,0,*58
1485036491.36,25060,9.31,74268.0,-7.65,-40.29,-40.35,0,*58
1485036492.61,25061,9.31,74270.8,-7.65,-40.29,-40.35,0,*59
1485036493.87,25062,9.31,74274.3,-7.65,-40.15,-40.29,0,*58
1485036495.12,25063,9.31,74270.5,-7.61,-40.47,-40.79,0,*5F
1485036496.38,25064,9.31,74270.8,-7.65,-40.35,-40.29,0,*5C
1485036497.6,25065,9.31,74270.8,-7.65,-40.47,-40.65,0,*50
1485036498.81,25066,9.31,74270.8,-7.67,-40.35,-40.53,0,*51
1485036500.1,25067,9.31,74272.5,-7.65,-40.09,-40.09,0,*52
1485036501.35,25068,9.31,74270.8,-7.65,-40.29,-40.35,0,*50
1485036502.59,25069,9.31,74266.0,-7.65,-40.15,-40.15,0,*5C
1485036503.85,25070,9.31,74270.0,-7.65,-40.09,-40.15,0,*59
1485036505.1,25071,9.31,74268.5,-7.65,-40.47,-40.79,0,*58
1485036506.3,25072,9.31,74268.5,-7.67,-40.53,-40.73,0,*56
1485036507.56,25073,9.31,74268.5,-7.65,-40.09,-40.15,0,*5A
1485036508.8,25074,9.31,74270.0,-7.67,-39.79,-39.85,0,*51
1485036510.06,25075,9.31,74270.0,-7.65,-39.91,-39.97,0,*57